It's Sunday,
December 15th, 2019
User not logged in
[Run Race Header Image][Run Race logo]
  
Race webcasting is attempted by race directors and their support staff. Please remember that conditions under which they're working may make it difficult to post timely webcast updates... your interest and patience is appreciated!
Race Information
Race Name:Kettle Moraine Endurance Races 100/100k/50k/38 mile run run
Location:LaGrange
State:Wisconsin, United States
 button: button: Webcast Autoplay
Event Information
Name of Event:Kettle Moraine 100m
Distance:100 Miles
Started Date/Time:Saturday June 1st, 2019, 5:59:59.29 am
button: Assign Numbers  
Checkpoint:Nordic Center Start
Distance:0 Miles
Gun Start Time:Saturday June 1st, 2019 5:59:59.29 am
Calculate Chip Start Time:< not set >
Y or N... Calculate splits based upon participant chip start time?
Allow Early Chip Start Time:< not set >
Y or N... Allow participants a chip start time prior to gun start?
Pos Race
Number
NameAgeSexTime
1125DAVID HANSEN33M0.55 secondsSat Jun 1st 5:59:59.84 am
2350William Kidnew31M0.63 secondsSat Jun 1st 5:59:59.92 am
3103Steve Fredrickson39M1.04 secondsSat Jun 1st 6:00:00.33 am
4260Barry Sackett50M1.13 secondsSat Jun 1st 6:00:00.42 am
5148Tony Jensen30M1.27 secondsSat Jun 1st 6:00:00.56 am
6169Jonathan Koscinski38M1.73 secondsSat Jun 1st 6:00:01.02 am
7139Michael Hinterberg40M1.95 secondsSat Jun 1st 6:00:01.24 am
8209Kyle Moss28M1.97 secondsSat Jun 1st 6:00:01.26 am
9164Scott Klopfenstein48M2.05 secondsSat Jun 1st 6:00:01.34 am
1020Jeffrey Lenard53M2.23 secondsSat Jun 1st 6:00:01.52 am
11313Brian Wean37M2.76 secondsSat Jun 1st 6:00:02.05 am
12246Tom Rauen36M2.8 secondsSat Jun 1st 6:00:02.09 am
13222Jon Noll34M3.22 secondsSat Jun 1st 6:00:02.51 am
1447Rachel Burke34F3.38 secondsSat Jun 1st 6:00:02.67 am
15157Jason Keeler36M3.42 secondsSat Jun 1st 6:00:02.71 am
16140Laura Hoban39F3.56 secondsSat Jun 1st 6:00:02.85 am
1777Relena Del Toro Ribbons32F3.87 secondsSat Jun 1st 6:00:03.16 am
1832Jamie Blumentritt31F4.02 secondsSat Jun 1st 6:00:03.31 am
19126Jon Hanson42M4.1 secondsSat Jun 1st 6:00:03.39 am
20224Tristan Obluck34M4.15 secondsSat Jun 1st 6:00:03.44 am
21322Lisa Wonneberg38F4.24 secondsSat Jun 1st 6:00:03.53 am
2227Brandon Becker42M4.6 secondsSat Jun 1st 6:00:03.89 am
2376Sonya Decker52F4.74 secondsSat Jun 1st 6:00:04.03 am
24110Bibo Gao41F4.78 secondsSat Jun 1st 6:00:04.07 am
2522Shaun Barnes47M5 secondsSat Jun 1st 6:00:04.29 am
26128Jaime Hardgrove39F5.03 secondsSat Jun 1st 6:00:04.32 am
27251Parker Rios52M5.08 secondsSat Jun 1st 6:00:04.37 am
28122Peter Hancovsky22M5.32 secondsSat Jun 1st 6:00:04.61 am
2958Emily Collins40F5.46 secondsSat Jun 1st 6:00:04.75 am
30250Michael Riordan35M5.6 secondsSat Jun 1st 6:00:04.89 am
31298Ashley Truan35F5.88 secondsSat Jun 1st 6:00:05.17 am
32248Jessica Rettig40F6.24 secondsSat Jun 1st 6:00:05.53 am
33134Lindsay Henkels39F6.32 secondsSat Jun 1st 6:00:05.61 am
34301David Ulbert61M6.48 secondsSat Jun 1st 6:00:05.77 am
35113Jeff Goodmanson56M6.58 secondsSat Jun 1st 6:00:05.87 am
36229Philip Parsons40M6.78 secondsSat Jun 1st 6:00:06.07 am
37186James Luebke36M7.09 secondsSat Jun 1st 6:00:06.38 am
3844Stacey Buckley43F7.16 secondsSat Jun 1st 6:00:06.45 am
39104Jennifer Freeman38F7.46 secondsSat Jun 1st 6:00:06.75 am
40208William Morrissey37M7.56 secondsSat Jun 1st 6:00:06.85 am
41150Ray Johnson40M8.11 secondsSat Jun 1st 6:00:07.4 am
42238Daria Podejko46F8.22 secondsSat Jun 1st 6:00:07.51 am
4350Miguel Carreon52M8.28 secondsSat Jun 1st 6:00:07.57 am
4460Jess Conboy38M8.78 secondsSat Jun 1st 6:00:08.07 am
45135Lucas Henson34M9.15 secondsSat Jun 1st 6:00:08.44 am
46176Tim Landewe45M9.2 secondsSat Jun 1st 6:00:08.49 am
4711Jon Archer35M9.68 secondsSat Jun 1st 6:00:08.97 am
48325Keith Wurm39M9.88 secondsSat Jun 1st 6:00:09.17 am
49215Peeter Muursepp49M9.94 secondsSat Jun 1st 6:00:09.23 am
501William Abel46M10 secondsSat Jun 1st 6:00:09.29 am
51315Christine Westcott49F10.04 secondsSat Jun 1st 6:00:09.33 am
52223Faye Norby37F11.09 secondsSat Jun 1st 6:00:10.38 am
53312Frayah Wasmund34F11.12 secondsSat Jun 1st 6:00:10.41 am
54138Jason Herrboldt40M11.14 secondsSat Jun 1st 6:00:10.43 am
55182Jeff Leuwerke38M11.26 secondsSat Jun 1st 6:00:10.55 am
56172Jason Kumlien49M11.28 secondsSat Jun 1st 6:00:10.57 am
57266Mike Schmitt42M11.4 secondsSat Jun 1st 6:00:10.69 am
5872Kristen Cwik41F11.71 secondsSat Jun 1st 6:00:11 am
5945Mike Bull44M12.66 secondsSat Jun 1st 6:00:11.95 am
6088Jen Even34F12.79 secondsSat Jun 1st 6:00:12.08 am
61118Lanier Greenhaw48M13.05 secondsSat Jun 1st 6:00:12.34 am
62178Jeff laughead42M13.56 secondsSat Jun 1st 6:00:12.85 am
637Cheryl Anderson46F13.82 secondsSat Jun 1st 6:00:13.11 am
6474Heather Davenport52F14.26 secondsSat Jun 1st 6:00:13.55 am
65278Mark Smith40M14.29 secondsSat Jun 1st 6:00:13.58 am
66184Erika Lohn46F14.45 secondsSat Jun 1st 6:00:13.74 am
67294John Tiwet52M14.89 secondsSat Jun 1st 6:00:14.18 am
68255Mike Rohner39M15.49 secondsSat Jun 1st 6:00:14.78 am
69244Erik Raivo35M15.61 secondsSat Jun 1st 6:00:14.9 am
7023Andrew Barr31M16.25 secondsSat Jun 1st 6:00:15.54 am
71156brandon karl43M16.31 secondsSat Jun 1st 6:00:15.6 am
72317Tony Weyers49M16.51 secondsSat Jun 1st 6:00:15.8 am
73280jonathan Spry36M16.97 secondsSat Jun 1st 6:00:16.26 am
7442Jason Brozek39M17.14 secondsSat Jun 1st 6:00:16.43 am
75115Kelli Gorski39F17.61 secondsSat Jun 1st 6:00:16.9 am
76274Paul Shimondle67M17.84 secondsSat Jun 1st 6:00:17.13 am
76226Adam Page35M17.84 secondsSat Jun 1st 6:00:17.13 am
78127Gina Harcrow47F17.93 secondsSat Jun 1st 6:00:17.22 am
79247Barry Reece49M17.95 secondsSat Jun 1st 6:00:17.24 am
80254arturo Rodriguez42M18.41 secondsSat Jun 1st 6:00:17.7 am
81256Moriel Rothman-Zecher29M18.73 secondsSat Jun 1st 6:00:18.02 am
825Richard Albanese46M19.57 secondsSat Jun 1st 6:00:18.86 am
83239Matthew Poore38M19.95 secondsSat Jun 1st 6:00:19.24 am
8417Christopher Baldwin46M19.98 secondsSat Jun 1st 6:00:19.27 am
8473Ronnie Daniel49M19.98 secondsSat Jun 1st 6:00:19.27 am
86102Douglas Franklin38M20.29 secondsSat Jun 1st 6:00:19.58 am
87195Shannon McFarland43M20.68 secondsSat Jun 1st 6:00:19.97 am
88181Lori Leonard57F20.69 secondsSat Jun 1st 6:00:19.98 am
89241Bryan Powers51M21.22 secondsSat Jun 1st 6:00:20.51 am
9049Ausra Butkeviciute42F21.41 secondsSat Jun 1st 6:00:20.7 am
91141Russell House22M21.63 secondsSat Jun 1st 6:00:20.92 am
92149Nathan Johnson36M21.8 secondsSat Jun 1st 6:00:21.09 am
9395David Fischer56M22.03 secondsSat Jun 1st 6:00:21.32 am
9455Anthony Ciske41M22.21 secondsSat Jun 1st 6:00:21.5 am
954Sevil Aksoy36F22.71 secondsSat Jun 1st 6:00:22 am
96117Matt Granstrom40M22.97 secondsSat Jun 1st 6:00:22.26 am
97276David Smith38M23.45 secondsSat Jun 1st 6:00:22.74 am
98173Jon Laack33M23.54 secondsSat Jun 1st 6:00:22.83 am
99293Barry Thrune43M24.33 secondsSat Jun 1st 6:00:23.62 am
100194Evan McDoniels37M24.35 secondsSat Jun 1st 6:00:23.64 am
101242Noah Praetz42M24.41 secondsSat Jun 1st 6:00:23.7 am
102108Carl Galdine46M25.43 secondsSat Jun 1st 6:00:24.72 am
103237Richard Plezia60M25.66 secondsSat Jun 1st 6:00:24.95 am
104304Tim Vanderhoof51M25.81 secondsSat Jun 1st 6:00:25.1 am
105261Chris Salamasick33M25.85 secondsSat Jun 1st 6:00:25.14 am
10682Craig Duhn43M25.86 secondsSat Jun 1st 6:00:25.15 am
107214Steve Murray55M26.33 secondsSat Jun 1st 6:00:25.62 am
108171Predrag Krkic64M26.75 secondsSat Jun 1st 6:00:26.04 am
109233Jake Peterson29M27.29 secondsSat Jun 1st 6:00:26.58 am
110303Brent Vanderhoof48M27.33 secondsSat Jun 1st 6:00:26.62 am
11181Roger Doyle44M27.66 secondsSat Jun 1st 6:00:26.95 am
112277Malcolm Smith56M27.81 secondsSat Jun 1st 6:00:27.1 am
11383John Duncombe42M28.05 secondsSat Jun 1st 6:00:27.34 am
114323Karen Wray54F29.55 secondsSat Jun 1st 6:00:28.84 am
115272Dan-O Semsel52M29.91 secondsSat Jun 1st 6:00:29.2 am
1162Timothy Adamski30M30.27 secondsSat Jun 1st 6:00:29.56 am
117213Morgan Murphy42M30.55 secondsSat Jun 1st 6:00:29.84 am
118170Randy Kreill56M30.58 secondsSat Jun 1st 6:00:29.87 am
119177Brian Landstrom67M30.73 secondsSat Jun 1st 6:00:30.02 am
120179Matthew Lee40M31.04 secondsSat Jun 1st 6:00:30.33 am
121219Kurt Neumann44M31.46 secondsSat Jun 1st 6:00:30.75 am
12234Irina Boggie-Miloserdova59F32.01 secondsSat Jun 1st 6:00:31.3 am
12380John Doyle58M32.69 secondsSat Jun 1st 6:00:31.98 am
124154David Just59M33.52 secondsSat Jun 1st 6:00:32.81 am
12578Paul Deuchar43M33.71 secondsSat Jun 1st 6:00:33 am
126230Jason Patera43M33.81 secondsSat Jun 1st 6:00:33.1 am
12713Todd Arnold39M34.54 secondsSat Jun 1st 6:00:33.83 am
128145Scott Irwin54M34.55 secondsSat Jun 1st 6:00:33.84 am
129174Joshua Lacey34M34.63 secondsSat Jun 1st 6:00:33.92 am
13097Tara Flesch40F34.75 secondsSat Jun 1st 6:00:34.04 am
131326Salli Scott Young46F34.98 secondsSat Jun 1st 6:00:34.27 am
13240Kurt Brown52M35.5 secondsSat Jun 1st 6:00:34.79 am
13326Jon Beard64M35.74 secondsSat Jun 1st 6:00:35.03 am
13419Laney Baris44F35.91 secondsSat Jun 1st 6:00:35.2 am
13521Michael Barnaby36M36.45 secondsSat Jun 1st 6:00:35.74 am
136151ERROL JONES69M37.36 secondsSat Jun 1st 6:00:36.65 am
137314Tim Wegner53M37.77 secondsSat Jun 1st 6:00:37.06 am
13885Chris Dwyer39M38.16 secondsSat Jun 1st 6:00:37.45 am
13951Steven Kuntz41M38.2 secondsSat Jun 1st 6:00:37.49 am
140286Stephen Strauss64M38.28 secondsSat Jun 1st 6:00:37.57 am
141106austin frion36M38.33 secondsSat Jun 1st 6:00:37.62 am
142196Candice McMackin46F38.7 secondsSat Jun 1st 6:00:37.99 am
143265Dustin Schmidt33M39.28 secondsSat Jun 1st 6:00:38.57 am
144144stephanie hurtado38F40.02 secondsSat Jun 1st 6:00:39.31 am
14543Becky Brudwick52F41.24 secondsSat Jun 1st 6:00:40.53 am
1463Paul Ahearn47M41.54 secondsSat Jun 1st 6:00:40.83 am
14735Hope Bollig39F42.1 secondsSat Jun 1st 6:00:41.39 am
148309Mike Wallin35M42.92 secondsSat Jun 1st 6:00:42.21 am
14971Bill Curry39M43.76 secondsSat Jun 1st 6:00:43.05 am
150296Jaymz Touchstone51M43.86 secondsSat Jun 1st 6:00:43.15 am
151136Ilja Herdt35M43.89 secondsSat Jun 1st 6:00:43.18 am
1529Jeremy Anderson45M43.97 secondsSat Jun 1st 6:00:43.26 am
153290Josh TenBrink38M45.01 secondsSat Jun 1st 6:00:44.3 am
154207Erik Morrell42M45.24 secondsSat Jun 1st 6:00:44.53 am
155197todd mcmillion54M45.28 secondsSat Jun 1st 6:00:44.57 am
156249Kimmy Riley58F45.7 secondsSat Jun 1st 6:00:44.99 am
15767Gary Craig31M46 secondsSat Jun 1st 6:00:45.29 am
158308Erica Wagner32F46.16 secondsSat Jun 1st 6:00:45.45 am
15990Bill Fairfield63M47.54 secondsSat Jun 1st 6:00:46.83 am
160191Panagiotis MALLIARIS53M47.96 secondsSat Jun 1st 6:00:47.25 am
161240REGAN POURCHOT59M48.68 secondsSat Jun 1st 6:00:47.97 am
162202David Mentjes49M48.91 secondsSat Jun 1st 6:00:48.2 am
163329Tammy Zyduck54F49.23 secondsSat Jun 1st 6:00:48.52 am
16461Hannah Conway31F49.79 secondsSat Jun 1st 6:00:49.08 am
165270Liz Schumacher37F49.82 secondsSat Jun 1st 6:00:49.11 am
166283Sharleen Stevens36F49.99 secondsSat Jun 1st 6:00:49.28 am
167288Paul Swindle39M50.87 secondsSat Jun 1st 6:00:50.16 am
168119Andy Hahn35M51.02 secondsSat Jun 1st 6:00:50.31 am
169123Geoff Hanley43M51.23 secondsSat Jun 1st 6:00:50.52 am
17052Brian Cavanaugh38M51.45 secondsSat Jun 1st 6:00:50.74 am
171292Paul Thomson45M51.7 secondsSat Jun 1st 6:00:50.99 am
17228Tim Belleau53M51.99 secondsSat Jun 1st 6:00:51.28 am
173284Scott Stith37M52.35 secondsSat Jun 1st 6:00:51.64 am
17462Jim Cooper50M52.7 secondsSat Jun 1st 6:00:51.99 am
175152Jimmy Jones40M52.74 secondsSat Jun 1st 6:00:52.03 am
176273Shawn Severson46F52.85 secondsSat Jun 1st 6:00:52.14 am
177299John Truelove51M53.95 secondsSat Jun 1st 6:00:53.24 am
178146Stacy Jantz27F54.61 secondsSat Jun 1st 6:00:53.9 am
179307Jeremy Verstraete42M54.74 secondsSat Jun 1st 6:00:54.03 am
18053Todd Chandler51M54.87 secondsSat Jun 1st 6:00:54.16 am
181291Jennifer Thoennes37F55.07 secondsSat Jun 1st 6:00:54.36 am
182217ERIC NELSON42M55.63 secondsSat Jun 1st 6:00:54.92 am
18393Bryan Fillman47M55.65 secondsSat Jun 1st 6:00:54.94 am
18456Ryan Clayton35M55.75 secondsSat Jun 1st 6:00:55.04 am
185267Andy Schmitz41M55.81 secondsSat Jun 1st 6:00:55.1 am
18618Angela Barbera58F56.37 secondsSat Jun 1st 6:00:55.66 am
18715James Baetz41M56.67 secondsSat Jun 1st 6:00:55.96 am
1888Jay Anderson46M57.9 secondsSat Jun 1st 6:00:57.19 am
18916Corey Baker49M58.15 secondsSat Jun 1st 6:00:57.44 am
190187Jeffery Lung40M58.31 secondsSat Jun 1st 6:00:57.6 am
191306Edna Jackeline Vazquez Lung37F58.61 secondsSat Jun 1st 6:00:57.9 am
192153Brian Jubeck42M59.01 secondsSat Jun 1st 6:00:58.3 am
19391Troy Figgins49M59.05 secondsSat Jun 1st 6:00:58.34 am
194262Kevin Sas35M1:00.00Sat Jun 1st 6:00:59.29 am
195159Mandi Kennedy36F1:00.25Sat Jun 1st 6:00:59.54 am
196228Michael Parker34M1:00.35Sat Jun 1st 6:00:59.64 am
197160Michael Kennedy36M1:00.41Sat Jun 1st 6:00:59.7 am
19846Lucy Burke44F1:01.23Sat Jun 1st 6:01:00.52 am
19937Ryan Borucki41M1:01.26Sat Jun 1st 6:01:00.55 am
200221kimberly nickel54F1:01.66Sat Jun 1st 6:01:00.95 am
20169Jamie Crouse39F1:01.80Sat Jun 1st 6:01:01.09 am
202143jeremy hurm42M1:02.77Sat Jun 1st 6:01:02.06 am
203162Leopold Kesseler21M1:02.83Sat Jun 1st 6:01:02.12 am
20475Tammy Davis40F1:03.21Sat Jun 1st 6:01:02.5 am
205269Ann Scholl49F1:04.13Sat Jun 1st 6:01:03.42 am
206116Joe Gow56M1:04.27Sat Jun 1st 6:01:03.56 am
207319Kim Willison49F1:04.47Sat Jun 1st 6:01:03.76 am
208107Jeni Funk-Miller50F1:05.13Sat Jun 1st 6:01:04.42 am
209263Geni Scalio48F1:05.17Sat Jun 1st 6:01:04.46 am
210289Christopher Tebeau48M1:05.87Sat Jun 1st 6:01:05.16 am
211211Peter Mulligan53M1:05.97Sat Jun 1st 6:01:05.26 am
212305Nikki Vapensky Marvel49F1:06.32Sat Jun 1st 6:01:05.61 am
213282Anthony Steeno39M1:06.66Sat Jun 1st 6:01:05.95 am
214204Jonathan Mireles35M1:06.78Sat Jun 1st 6:01:06.07 am
21568Dan Crouse42M1:07.05Sat Jun 1st 6:01:06.34 am
216203Scott Meyers51M1:07.29Sat Jun 1st 6:01:06.58 am
21738Curt brey39M1:07.48Sat Jun 1st 6:01:06.77 am
218201Abe Mendoza42M1:08.13Sat Jun 1st 6:01:07.42 am
219112Matt Goff32M1:08.26Sat Jun 1st 6:01:07.55 am
220327Beiyi Zheng55F1:09.02Sat Jun 1st 6:01:08.31 am
221129Josh Harris33M1:09.98Sat Jun 1st 6:01:09.27 am
222245Tony Rajkowski41M1:10.85Sat Jun 1st 6:01:10.14 am
223320Dennis wilson61M1:11.28Sat Jun 1st 6:01:10.57 am
22486Stefan Elbel46M1:11.38Sat Jun 1st 6:01:10.67 am
225321torrey wilson28F1:11.86Sat Jun 1st 6:01:11.15 am
226259Daryl Saari56M1:11.99Sat Jun 1st 6:01:11.28 am
22765Carleen Coulter52F1:12.88Sat Jun 1st 6:01:12.17 am
228264Nick Schaid34M1:13.08Sat Jun 1st 6:01:12.37 am
22910Scott Anderson37M1:13.09Sat Jun 1st 6:01:12.38 am
23024Christian Barry51M1:14.02Sat Jun 1st 6:01:13.31 am
231198COLE MCNABB31M1:14.12Sat Jun 1st 6:01:13.41 am
232100Sara Foster43F1:14.23Sat Jun 1st 6:01:13.52 am
233147Christian Jensen41M1:15.66Sat Jun 1st 6:01:14.95 am
234188Janette Maas60F1:15.87Sat Jun 1st 6:01:15.16 am
235252Mary Rittgers38F1:16.18Sat Jun 1st 6:01:15.47 am
236161Mike Kenney41M1:16.45Sat Jun 1st 6:01:15.74 am
237142Laura Hufschmidt38F1:17.02Sat Jun 1st 6:01:16.31 am
238193Gregory Marshall29M1:17.44Sat Jun 1st 6:01:16.73 am
239271Tyler sears31M1:17.84Sat Jun 1st 6:01:17.13 am
240165Leigh Knaus38F1:17.88Sat Jun 1st 6:01:17.17 am
241310Ronghui Wang51M1:18.50Sat Jun 1st 6:01:17.79 am
242316Trent Wester34M1:19.08Sat Jun 1st 6:01:18.37 am
243166Kendra Kneer38F1:19.18Sat Jun 1st 6:01:18.47 am
24499Ron Foster52M1:19.96Sat Jun 1st 6:01:19.25 am
245200Ryan Menard45M1:20.02Sat Jun 1st 6:01:19.31 am
246189Jennifer Majewski35F1:20.37Sat Jun 1st 6:01:19.66 am
2476Alisha Alness32F1:20.43Sat Jun 1st 6:01:19.72 am
248167nathan koehn40M1:21.10Sat Jun 1st 6:01:20.39 am
24970Jason Crowe46M1:21.38Sat Jun 1st 6:01:20.67 am
250137Jen Herdzina31F1:21.78Sat Jun 1st 6:01:21.07 am
251168Irene Kok48F1:22.10Sat Jun 1st 6:01:21.39 am
252183Nile Limbach25M1:22.61Sat Jun 1st 6:01:21.9 am
253121Becca Hamm McMillan30F1:23.20Sat Jun 1st 6:01:22.49 am
254158Evie Kellogg39F1:23.57Sat Jun 1st 6:01:22.86 am
255131Shannon Haus48M1:23.85Sat Jun 1st 6:01:23.14 am
25629Nicole Bernardin39F1:25.17Sat Jun 1st 6:01:24.46 am
257190Elizabeth Male28F1:25.32Sat Jun 1st 6:01:24.61 am
258318Brad Whitson55M1:25.84Sat Jun 1st 6:01:25.13 am
259295Joel Toews41M1:26.43Sat Jun 1st 6:01:25.72 am
260275Jason Shrontz39M1:26.95Sat Jun 1st 6:01:26.24 am
26159Jennell Colwell40F1:28.19Sat Jun 1st 6:01:27.48 am
262253Tara Roberts39F1:28.23Sat Jun 1st 6:01:27.52 am
26364Daniel Cordova40M1:28.63Sat Jun 1st 6:01:27.92 am
26412Anjanette Arnold43F1:29.08Sat Jun 1st 6:01:28.37 am
265205Andrew Mitchel55M1:29.25Sat Jun 1st 6:01:28.54 am
26663Ryan Cooper43M1:29.83Sat Jun 1st 6:01:29.12 am
267101Jenny Fox34F1:30.55Sat Jun 1st 6:01:29.84 am
268180Aurora LeMay31F1:30.97Sat Jun 1st 6:01:30.26 am
269268Trudi Schoening40F1:31.37Sat Jun 1st 6:01:30.66 am
270175Traci Lambert-Cwerenz58F1:31.44Sat Jun 1st 6:01:30.73 am
27148Susan Bush51F1:31.69Sat Jun 1st 6:01:30.98 am
272243Meghan Prohaska30F1:31.83Sat Jun 1st 6:01:31.12 am
273130Jason Hastings47M1:32.39Sat Jun 1st 6:01:31.68 am
274133jon hendren57M1:33.04Sat Jun 1st 6:01:32.33 am
275257Jeffrey Ruiz53M1:33.62Sat Jun 1st 6:01:32.91 am
27692David Files44M1:33.75Sat Jun 1st 6:01:33.04 am
277279Philip Spicer28M1:33.81Sat Jun 1st 6:01:33.1 am
278114Patrick Gorman60M1:33.85Sat Jun 1st 6:01:33.14 am
279235Josh Phillips38M1:35.07Sat Jun 1st 6:01:34.36 am
28066Ezra Coutre30M1:35.45Sat Jun 1st 6:01:34.74 am
281324Kenny Wunder42M1:35.54Sat Jun 1st 6:01:34.83 am
282206Matt Monroe47M1:35.68Sat Jun 1st 6:01:34.97 am
283210Jen Mullen45F1:36.45Sat Jun 1st 6:01:35.74 am
284285Arno Stoffel50M1:36.62Sat Jun 1st 6:01:35.91 am
28539Linda Britz49F1:36.71Sat Jun 1st 6:01:36 am
286111Megan Gibson39F1:37.65Sat Jun 1st 6:01:36.94 am
287258Ritzy Running23F1:37.69Sat Jun 1st 6:01:36.98 am
288281Josh Stebbins32M1:39.53Sat Jun 1st 6:01:38.82 am
289192Nick Mariotti40M1:40.01Sat Jun 1st 6:01:39.3 am
290311Ryan Wanless41M1:40.42Sat Jun 1st 6:01:39.71 am
291212Andrew Murphy35M1:41.35Sat Jun 1st 6:01:40.64 am
292227John Papiernik34M1:41.53Sat Jun 1st 6:01:40.82 am
29387Mike Elsbury35M1:41.96Sat Jun 1st 6:01:41.25 am
294155Walter Kapellen41M1:42.79Sat Jun 1st 6:01:42.08 am
295216Mack Naber35M1:43.56Sat Jun 1st 6:01:42.85 am
296225Charlie Ortiz39M2:00.58Sat Jun 1st 6:01:59.87 am
297218Mark Nelson50M2:30.37Sat Jun 1st 6:02:29.66 am
298185Radek Lopusnik45M4:48.96Sat Jun 1st 6:04:48.25 am

Event Information
Name of Event:Kettle Moraine 100k
Distance:100 Kilometers
Started Date/Time:Saturday June 1st, 2019, 5:59:59.29 am
button: Assign Numbers 

Event Information
Name of Event:Kettle Team Relay
Distance:100 Miles
Started Date/Time:Saturday June 1st, 2019, 5:59:59.29 am
button: Assign Numbers 

Event Information
Name of Event:Kettle Moraine 50k
Distance:50 Kilometers
Started Date/Time:Saturday June 1st, 2019, 1:00:00.20 pm
button: Assign Numbers 

Event Information
Name of Event:Kettle 38 mile Fun Run
Distance:38 Miles
Scheduled Date/Time:Saturday June 1, 2019, 5:30 pm
button: Assign Numbers 
2004-2019 : All rights reserved
Terms and Conditions